| time (UTC) | temp F | wind direction | speed knots | gust knots | rain 1hr in | rain 24hr in | rain mn in | humidity % | barometer mb |
| 20260507171533 | 60 | 248 | 5.2 | 10.4 | 0.00 | 0.00 | 0.00 | 63 | 1016.2 |
| 20260507164533 | 57 | 267 | 6.1 | 13.9 | 0.00 | 0.00 | 0.00 | 68 | 1016.2 |
| 20260507163036 | 57 | 273 | 7.0 | 13.9 | 0.00 | 0.00 | 0.00 | 68 | 1016.1 |
| 20260507161533 | 57 | 271 | 7.0 | 15.6 | 0.00 | 0.00 | 0.00 | 69 | 1016.1 |
| 20260507160037 | 56 | 260 | 6.1 | 13.9 | 0.00 | 0.00 | 0.00 | 71 | 1016.5 |
| 20260507153033 | 54 | 261 | 5.2 | 12.2 | 0.00 | 0.00 | 0.00 | 75 | 1016.6 |
| 20260507151605 | 53 | 264 | 5.2 | 13.0 | 0.00 | 0.00 | 0.00 | 76 | 1016.5 |
| 20260507150051 | 53 | 273 | 7.0 | 13.0 | 0.00 | 0.00 | 0.00 | 77 | 1016.4 |
| 20260507144644 | 52 | 271 | 6.1 | 11.3 | 0.00 | 0.00 | 0.00 | 79 | 1016.3 |
| 20260507143036 | 52 | 264 | 7.0 | 13.9 | 0.00 | 0.00 | 0.00 | 79 | 1016.0 |
| 20260507141533 | 51 | 264 | 6.1 | 16.5 | 0.00 | 0.00 | 0.00 | 81 | 1016.1 |
| 20260507133030 | 49 | 265 | 4.3 | 9.6 | 0.00 | 0.00 | 0.00 | 83 | 1015.8 |
| 20260507131535 | 49 | 263 | 4.3 | 11.3 | 0.00 | 0.00 | 0.00 | 83 | 1015.7 |
| 20260507130036 | 49 | 260 | 6.1 | 13.9 | 0.00 | 0.00 | 0.00 | 83 | 1015.6 |
| 20260507124531 | 49 | 261 | 6.1 | 13.0 | 0.00 | 0.00 | 0.00 | 84 | 1015.6 |
| 20260507123034 | 49 | 258 | 7.0 | 15.6 | 0.00 | 0.00 | 0.00 | 84 | 1015.8 |
| 20260507121641 | 49 | 265 | 6.1 | 12.2 | 0.00 | 0.00 | 0.00 | 85 | 1016.0 |
| 20260507120041 | 48 | 268 | 5.2 | 12.2 | 0.00 | 0.00 | 0.00 | 85 | 1016.2 |
| 20260507114540 | 47 | 251 | 2.6 | 7.8 | 0.00 | 0.00 | 0.00 | 85 | 1016.2 |
| 20260507113033 | 48 | 219 | 2.6 | 6.1 | 0.00 | 0.00 | 0.00 | 84 | 1016.2 |
| 20260507110036 | 49 | 204 | 1.7 | 4.3 | 0.00 | 0.00 | 0.00 | 83 | 1016.0 |
| 20260507104534 | 50 | 239 | 3.5 | 9.6 | 0.00 | 0.00 | 0.00 | 82 | 1015.8 |
| 20260507101606 | 51 | 258 | 4.3 | 10.4 | 0.00 | 0.00 | 0.00 | 82 | 1015.4 |
| 20260507100043 | 51 | 242 | 5.2 | 12.2 | 0.00 | 0.00 | 0.00 | 82 | 1015.2 |
| 20260507094535 | 52 | 231 | 4.3 | 10.4 | 0.00 | 0.00 | 0.00 | 81 | 1015.5 |
| 20260507093037 | 52 | 229 | 3.5 | 9.6 | 0.00 | 0.00 | 0.00 | 81 | 1015.6 |
| 20260507091609 | 53 | 222 | 4.3 | 9.6 | 0.00 | 0.00 | 0.00 | 80 | 1015.5 |
| 20260507084534 | 54 | 245 | 6.1 | 12.2 | 0.00 | 0.00 | 0.00 | 79 | 1015.3 |
| 20260507081536 | 55 | 262 | 7.8 | 14.8 | 0.00 | 0.00 | 0.00 | 79 | 1015.2 |
| 20260507073032 | 55 | 261 | 7.0 | 14.8 | 0.00 | 0.00 | 0.00 | 77 | 1015.5 |
| 20260507070029 | 56 | 265 | 8.7 | 16.5 | 0.00 | 0.00 | 0.00 | 77 | 1015.0 |
| 20260507064531 | 56 | 262 | 7.8 | 17.4 | 0.00 | 0.00 | 0.00 | 76 | 1015.2 |
| 20260507063033 | 56 | 263 | 7.8 | 13.9 | 0.00 | 0.00 | 0.00 | 75 | 1015.4 |
| 20260507061530 | 57 | 264 | 7.8 | 13.9 | 0.00 | 0.00 | 0.00 | 75 | 1015.4 |
| 20260507060106 | 57 | 261 | 7.0 | 16.5 | 0.00 | 0.00 | 0.00 | 74 | 1015.5 |
| 20260507053031 | 57 | 264 | 7.8 | 15.6 | 0.00 | 0.00 | 0.00 | 71 | 1015.7 |
| 20260507050031 | 58 | 268 | 7.8 | 15.6 | 0.00 | 0.00 | 0.00 | 67 | 1015.5 |
| 20260507044607 | 59 | 268 | 7.8 | 16.5 | 0.00 | 0.00 | 0.00 | 65 | 1015.5 |
| 20260507043110 | 59 | 275 | 5.2 | 10.4 | 0.00 | 0.00 | 0.00 | 64 | 1015.6 |
| 20260507040046 | 60 | 268 | 3.5 | 8.7 | 0.00 | 0.00 | 0.00 | 62 | 1015.5 |
| 20260507034531 | 60 | 256 | 4.3 | 7.8 | 0.00 | 0.00 | 0.00 | 61 | 1015.3 |
| 20260507031532 | 62 | 259 | 5.2 | 10.4 | 0.00 | 0.00 | 0.00 | 59 | 1015.1 |
| 20260507030029 | 62 | 266 | 7.0 | 13.9 | 0.00 | 0.00 | 0.00 | 59 | 1015.0 |
| 20260507023035 | 63 | 266 | 6.1 | 13.0 | 0.00 | 0.00 | 0.00 | 58 | 1014.7 |
| 20260507021534 | 63 | 265 | 7.0 | 14.8 | 0.00 | 0.00 | 0.00 | 57 | 1014.5 |
| 20260507020110 | 64 | 263 | 8.7 | 17.4 | 0.00 | 0.00 | 0.00 | 56 | 1014.4 |
| 20260507011536 | 67 | 263 | 10.4 | 18.2 | 0.00 | 0.00 | 0.00 | 51 | 1014.2 |
| 20260507010030 | 69 | 262 | 8.7 | 20.0 | 0.00 | 0.00 | 0.00 | 50 | 1014.2 |
| 20260507004531 | 69 | 265 | 9.6 | 20.0 | 0.00 | 0.00 | 0.00 | 50 | 1014.2 |
| 20260507003107 | 69 | 262 | 9.6 | 18.2 | 0.00 | 0.00 | 0.00 | 49 | 1014.1 |
| 20260507001642 | 69 | 262 | 9.6 | 20.0 | 0.00 | 0.00 | 0.00 | 46 | 1014.0 |
| 20260507000037 | 70 | 264 | 11.3 | 24.3 | 0.00 | 0.00 | 0.00 | 44 | 1013.6 |
| 20260506234534 | 72 | 265 | 10.4 | 21.7 | 0.00 | 0.00 | 0.00 | 43 | 1013.6 |
| 20260506233034 | 73 | 264 | 10.4 | 22.6 | 0.00 | 0.00 | 0.00 | 43 | 1013.8 |
| 20260506231530 | 73 | 258 | 9.6 | 18.2 | 0.00 | 0.00 | 0.00 | 44 | 1014.1 |
| 20260506230034 | 73 | 256 | 9.6 | 20.9 | 0.00 | 0.00 | 0.00 | 44 | 1013.9 |
| 20260506223032 | 74 | 261 | 9.6 | 18.2 | 0.00 | 0.00 | 0.00 | 44 | 1014.3 |
| 20260506220107 | 75 | 259 | 9.6 | 20.9 | 0.00 | 0.00 | 0.00 | 44 | 1014.3 |
| 20260506214543 | 74 | 256 | 8.7 | 18.2 | 0.00 | 0.00 | 0.00 | 46 | 1014.3 |
| 20260506213111 | 73 | 259 | 9.6 | 22.6 | 0.00 | 0.00 | 0.00 | 48 | 1014.3 |
| 20260506211535 | 72 | 265 | 9.6 | 20.9 | 0.00 | 0.00 | 0.00 | 49 | 1014.4 |
| 20260506210034 | 71 | 264 | 9.6 | 18.2 | 0.00 | 0.00 | 0.00 | 50 | 1014.4 |
| 20260506203036 | 71 | 268 | 9.6 | 19.1 | 0.00 | 0.00 | 0.00 | 51 | 1014.8 |
| 20260506201606 | 71 | 274 | 9.6 | 19.1 | 0.00 | 0.00 | 0.00 | 53 | 1014.7 |
| 20260506194531 | 71 | 270 | 10.4 | 20.9 | 0.00 | 0.00 | 0.00 | 53 | 1014.4 |
| 20260506193107 | 71 | 273 | 10.4 | 20.9 | 0.00 | 0.00 | 0.00 | 54 | 1014.5 |
| 20260506191536 | 70 | 275 | 9.6 | 20.9 | 0.00 | 0.00 | 0.00 | 55 | 1014.6 |
| 20260506190032 | 70 | 264 | 7.8 | 15.6 | 0.00 | 0.00 | 0.00 | 56 | 1015.0 |
| 20260506184536 | 69 | 260 | 7.8 | 16.5 | 0.00 | 0.00 | 0.00 | 58 | 1015.1 |
| 20260506183042 | 68 | 258 | 7.8 | 14.8 | 0.00 | 0.00 | 0.00 | 59 | 1015.2 |
| 20260506181609 | 68 | 266 | 8.7 | 16.5 | 0.00 | 0.00 | 0.00 | 60 | 1015.1 |
| 20260506180035 | 68 | 265 | 7.8 | 14.8 | 0.00 | 0.00 | 0.00 | 60 | 1015.0 |
| 20260506173028 | 66 | 266 | 7.0 | 16.5 | 0.00 | 0.00 | 0.00 | 62 | 1014.8 |